index,time,SiteAddr,SiteName,app,area,date,device_id,gps_alt,gps_fix,gps_lat,gps_lon,gps_num,name,s_d0,s_d1,s_d2,s_h0,s_t0,timestamp
0,19:38:37,臺北市文山區萬祥里興隆路1段68號,市立武功國小(2018),AirBox,taipei,2024-03-21,74DA38F7C3DC,2.0,1.0,25.003,121.539,9.0,台北市文山區武功國小2018,12.0,13.0,9.0,100.0,17.87,2024-03-21T19:38:37Z
1,19:44:43,臺北市文山區萬祥里興隆路1段68號,市立武功國小(2018),AirBox,taipei,2024-03-21,74DA38F7C3DC,2.0,1.0,25.003,121.539,9.0,台北市文山區武功國小2018,13.0,14.0,10.0,100.0,17.87,2024-03-21T19:44:43Z
2,19:50:51,臺北市文山區萬祥里興隆路1段68號,市立武功國小(2018),AirBox,taipei,2024-03-21,74DA38F7C3DC,2.0,1.0,25.003,121.539,9.0,台北市文山區武功國小2018,12.0,14.0,10.0,100.0,17.87,2024-03-21T19:50:51Z
3,19:56:58,臺北市文山區萬祥里興隆路1段68號,市立武功國小(2018),AirBox,taipei,2024-03-21,74DA38F7C3DC,2.0,1.0,25.003,121.539,9.0,台北市文山區武功國小2018,13.0,14.0,10.0,100.0,17.87,2024-03-21T19:56:58Z
4,20:03:05,臺北市文山區萬祥里興隆路1段68號,市立武功國小(2018),AirBox,taipei,2024-03-21,74DA38F7C3DC,2.0,1.0,25.003,121.539,9.0,台北市文山區武功國小2018,12.0,14.0,9.0,100.0,17.75,2024-03-21T20:03:05Z
5,20:09:12,臺北市文山區萬祥里興隆路1段68號,市立武功國小(2018),AirBox,taipei,2024-03-21,74DA38F7C3DC,2.0,1.0,25.003,121.539,9.0,台北市文山區武功國小2018,12.0,13.0,9.0,100.0,17.87,2024-03-21T20:09:12Z
6,20:15:19,臺北市文山區萬祥里興隆路1段68號,市立武功國小(2018),AirBox,taipei,2024-03-21,74DA38F7C3DC,2.0,1.0,25.003,121.539,9.0,台北市文山區武功國小2018,12.0,13.0,9.0,100.0,17.87,2024-03-21T20:15:19Z
7,20:21:26,臺北市文山區萬祥里興隆路1段68號,市立武功國小(2018),AirBox,taipei,2024-03-21,74DA38F7C3DC,2.0,1.0,25.003,121.539,9.0,台北市文山區武功國小2018,12.0,13.0,9.0,100.0,17.62,2024-03-21T20:21:26Z
8,20:27:32,臺北市文山區萬祥里興隆路1段68號,市立武功國小(2018),AirBox,taipei,2024-03-21,74DA38F7C3DC,2.0,1.0,25.003,121.539,9.0,台北市文山區武功國小2018,12.0,14.0,9.0,100.0,17.5,2024-03-21T20:27:32Z
9,20:33:39,臺北市文山區萬祥里興隆路1段68號,市立武功國小(2018),AirBox,taipei,2024-03-21,74DA38F7C3DC,2.0,1.0,25.003,121.539,9.0,台北市文山區武功國小2018,12.0,13.0,9.0,100.0,17.5,2024-03-21T20:33:39Z
10,20:39:44,臺北市文山區萬祥里興隆路1段68號,市立武功國小(2018),AirBox,taipei,2024-03-21,74DA38F7C3DC,2.0,1.0,25.003,121.539,9.0,台北市文山區武功國小2018,12.0,13.0,9.0,100.0,17.62,2024-03-21T20:39:44Z
11,20:45:51,臺北市文山區萬祥里興隆路1段68號,市立武功國小(2018),AirBox,taipei,2024-03-21,74DA38F7C3DC,2.0,1.0,25.003,121.539,9.0,台北市文山區武功國小2018,12.0,13.0,9.0,100.0,17.5,2024-03-21T20:45:51Z
12,20:51:57,臺北市文山區萬祥里興隆路1段68號,市立武功國小(2018),AirBox,taipei,2024-03-21,74DA38F7C3DC,2.0,1.0,25.003,121.539,9.0,台北市文山區武功國小2018,12.0,13.0,9.0,100.0,17.5,2024-03-21T20:51:57Z
13,20:58:04,臺北市文山區萬祥里興隆路1段68號,市立武功國小(2018),AirBox,taipei,2024-03-21,74DA38F7C3DC,2.0,1.0,25.003,121.539,9.0,台北市文山區武功國小2018,12.0,13.0,9.0,100.0,17.5,2024-03-21T20:58:04Z
14,21:04:11,臺北市文山區萬祥里興隆路1段68號,市立武功國小(2018),AirBox,taipei,2024-03-21,74DA38F7C3DC,2.0,1.0,25.003,121.539,9.0,台北市文山區武功國小2018,11.0,12.0,8.0,100.0,17.37,2024-03-21T21:04:11Z
15,21:10:16,臺北市文山區萬祥里興隆路1段68號,市立武功國小(2018),AirBox,taipei,2024-03-21,74DA38F7C3DC,2.0,1.0,25.003,121.539,9.0,台北市文山區武功國小2018,11.0,12.0,9.0,100.0,17.12,2024-03-21T21:10:16Z
16,21:16:24,臺北市文山區萬祥里興隆路1段68號,市立武功國小(2018),AirBox,taipei,2024-03-21,74DA38F7C3DC,2.0,1.0,25.003,121.539,9.0,台北市文山區武功國小2018,12.0,13.0,9.0,100.0,17.12,2024-03-21T21:16:24Z
17,21:22:32,臺北市文山區萬祥里興隆路1段68號,市立武功國小(2018),AirBox,taipei,2024-03-21,74DA38F7C3DC,2.0,1.0,25.003,121.539,9.0,台北市文山區武功國小2018,12.0,12.0,9.0,100.0,17.12,2024-03-21T21:22:32Z
18,21:28:40,臺北市文山區萬祥里興隆路1段68號,市立武功國小(2018),AirBox,taipei,2024-03-21,74DA38F7C3DC,2.0,1.0,25.003,121.539,9.0,台北市文山區武功國小2018,12.0,13.0,9.0,100.0,17.12,2024-03-21T21:28:40Z
19,21:34:47,臺北市文山區萬祥里興隆路1段68號,市立武功國小(2018),AirBox,taipei,2024-03-21,74DA38F7C3DC,2.0,1.0,25.003,121.539,9.0,台北市文山區武功國小2018,12.0,13.0,9.0,100.0,17.12,2024-03-21T21:34:47Z
20,21:40:54,臺北市文山區萬祥里興隆路1段68號,市立武功國小(2018),AirBox,taipei,2024-03-21,74DA38F7C3DC,2.0,1.0,25.003,121.539,9.0,台北市文山區武功國小2018,12.0,13.0,9.0,100.0,17.12,2024-03-21T21:40:54Z
21,21:47:00,臺北市文山區萬祥里興隆路1段68號,市立武功國小(2018),AirBox,taipei,2024-03-21,74DA38F7C3DC,2.0,1.0,25.003,121.539,9.0,台北市文山區武功國小2018,13.0,14.0,10.0,100.0,17.12,2024-03-21T21:47:00Z
22,21:53:07,臺北市文山區萬祥里興隆路1段68號,市立武功國小(2018),AirBox,taipei,2024-03-21,74DA38F7C3DC,2.0,1.0,25.003,121.539,9.0,台北市文山區武功國小2018,14.0,15.0,10.0,100.0,17.12,2024-03-21T21:53:07Z
23,21:59:13,臺北市文山區萬祥里興隆路1段68號,市立武功國小(2018),AirBox,taipei,2024-03-21,74DA38F7C3DC,2.0,1.0,25.003,121.539,9.0,台北市文山區武功國小2018,13.0,14.0,10.0,100.0,17.12,2024-03-21T21:59:13Z
24,22:05:19,臺北市文山區萬祥里興隆路1段68號,市立武功國小(2018),AirBox,taipei,2024-03-21,74DA38F7C3DC,2.0,1.0,25.003,121.539,9.0,台北市文山區武功國小2018,14.0,15.0,10.0,100.0,17.12,2024-03-21T22:05:19Z
25,22:11:25,臺北市文山區萬祥里興隆路1段68號,市立武功國小(2018),AirBox,taipei,2024-03-21,74DA38F7C3DC,2.0,1.0,25.003,121.539,9.0,台北市文山區武功國小2018,14.0,15.0,10.0,100.0,17.12,2024-03-21T22:11:25Z
26,22:17:31,臺北市文山區萬祥里興隆路1段68號,市立武功國小(2018),AirBox,taipei,2024-03-21,74DA38F7C3DC,2.0,1.0,25.003,121.539,9.0,台北市文山區武功國小2018,13.0,15.0,10.0,100.0,17.12,2024-03-21T22:17:31Z
27,22:23:37,臺北市文山區萬祥里興隆路1段68號,市立武功國小(2018),AirBox,taipei,2024-03-21,74DA38F7C3DC,2.0,1.0,25.003,121.539,9.0,台北市文山區武功國小2018,14.0,15.0,10.0,100.0,17.25,2024-03-21T22:23:37Z
28,22:29:43,臺北市文山區萬祥里興隆路1段68號,市立武功國小(2018),AirBox,taipei,2024-03-21,74DA38F7C3DC,2.0,1.0,25.003,121.539,9.0,台北市文山區武功國小2018,14.0,15.0,11.0,100.0,17.25,2024-03-21T22:29:43Z
29,22:35:50,臺北市文山區萬祥里興隆路1段68號,市立武功國小(2018),AirBox,taipei,2024-03-21,74DA38F7C3DC,2.0,1.0,25.003,121.539,9.0,台北市文山區武功國小2018,15.0,16.0,11.0,100.0,17.12,2024-03-21T22:35:50Z
30,22:41:57,臺北市文山區萬祥里興隆路1段68號,市立武功國小(2018),AirBox,taipei,2024-03-21,74DA38F7C3DC,2.0,1.0,25.003,121.539,9.0,台北市文山區武功國小2018,13.0,14.0,10.0,100.0,17.12,2024-03-21T22:41:57Z
31,22:48:03,臺北市文山區萬祥里興隆路1段68號,市立武功國小(2018),AirBox,taipei,2024-03-21,74DA38F7C3DC,2.0,1.0,25.003,121.539,9.0,台北市文山區武功國小2018,14.0,15.0,10.0,100.0,17.0,2024-03-21T22:48:03Z
32,22:54:11,臺北市文山區萬祥里興隆路1段68號,市立武功國小(2018),AirBox,taipei,2024-03-21,74DA38F7C3DC,2.0,1.0,25.003,121.539,9.0,台北市文山區武功國小2018,15.0,16.0,11.0,100.0,17.12,2024-03-21T22:54:11Z
33,23:00:17,臺北市文山區萬祥里興隆路1段68號,市立武功國小(2018),AirBox,taipei,2024-03-21,74DA38F7C3DC,2.0,1.0,25.003,121.539,9.0,台北市文山區武功國小2018,14.0,15.0,10.0,100.0,17.12,2024-03-21T23:00:17Z
34,23:06:23,臺北市文山區萬祥里興隆路1段68號,市立武功國小(2018),AirBox,taipei,2024-03-21,74DA38F7C3DC,2.0,1.0,25.003,121.539,9.0,台北市文山區武功國小2018,15.0,16.0,11.0,100.0,17.12,2024-03-21T23:06:23Z
35,23:12:29,臺北市文山區萬祥里興隆路1段68號,市立武功國小(2018),AirBox,taipei,2024-03-21,74DA38F7C3DC,2.0,1.0,25.003,121.539,9.0,台北市文山區武功國小2018,14.0,15.0,10.0,100.0,17.0,2024-03-21T23:12:29Z
36,23:18:36,臺北市文山區萬祥里興隆路1段68號,市立武功國小(2018),AirBox,taipei,2024-03-21,74DA38F7C3DC,2.0,1.0,25.003,121.539,9.0,台北市文山區武功國小2018,13.0,14.0,10.0,100.0,17.12,2024-03-21T23:18:36Z
37,23:24:42,臺北市文山區萬祥里興隆路1段68號,市立武功國小(2018),AirBox,taipei,2024-03-21,74DA38F7C3DC,2.0,1.0,25.003,121.539,9.0,台北市文山區武功國小2018,14.0,15.0,10.0,100.0,17.12,2024-03-21T23:24:42Z
38,23:30:48,臺北市文山區萬祥里興隆路1段68號,市立武功國小(2018),AirBox,taipei,2024-03-21,74DA38F7C3DC,2.0,1.0,25.003,121.539,9.0,台北市文山區武功國小2018,13.0,14.0,10.0,100.0,17.25,2024-03-21T23:30:48Z
39,23:36:55,臺北市文山區萬祥里興隆路1段68號,市立武功國小(2018),AirBox,taipei,2024-03-21,74DA38F7C3DC,2.0,1.0,25.003,121.539,9.0,台北市文山區武功國小2018,13.0,14.0,10.0,100.0,17.37,2024-03-21T23:36:55Z
40,23:43:02,臺北市文山區萬祥里興隆路1段68號,市立武功國小(2018),AirBox,taipei,2024-03-21,74DA38F7C3DC,2.0,1.0,25.003,121.539,9.0,台北市文山區武功國小2018,13.0,13.0,10.0,100.0,17.62,2024-03-21T23:43:02Z
41,23:49:08,臺北市文山區萬祥里興隆路1段68號,市立武功國小(2018),AirBox,taipei,2024-03-21,74DA38F7C3DC,2.0,1.0,25.003,121.539,9.0,台北市文山區武功國小2018,13.0,14.0,10.0,100.0,17.62,2024-03-21T23:49:08Z
42,23:55:15,臺北市文山區萬祥里興隆路1段68號,市立武功國小(2018),AirBox,taipei,2024-03-21,74DA38F7C3DC,2.0,1.0,25.003,121.539,9.0,台北市文山區武功國小2018,12.0,13.0,9.0,100.0,17.75,2024-03-21T23:55:15Z
43,00:01:22,臺北市文山區萬祥里興隆路1段68號,市立武功國小(2018),AirBox,taipei,2024-03-22,74DA38F7C3DC,2.0,1.0,25.003,121.539,9.0,台北市文山區武功國小2018,13.0,14.0,9.0,100.0,17.62,2024-03-22T00:01:22Z
44,00:07:29,臺北市文山區萬祥里興隆路1段68號,市立武功國小(2018),AirBox,taipei,2024-03-22,74DA38F7C3DC,2.0,1.0,25.003,121.539,9.0,台北市文山區武功國小2018,12.0,13.0,9.0,100.0,17.75,2024-03-22T00:07:29Z
45,00:13:35,臺北市文山區萬祥里興隆路1段68號,市立武功國小(2018),AirBox,taipei,2024-03-22,74DA38F7C3DC,2.0,1.0,25.003,121.539,9.0,台北市文山區武功國小2018,12.0,13.0,9.0,100.0,18.0,2024-03-22T00:13:35Z
46,00:19:42,臺北市文山區萬祥里興隆路1段68號,市立武功國小(2018),AirBox,taipei,2024-03-22,74DA38F7C3DC,2.0,1.0,25.003,121.539,9.0,台北市文山區武功國小2018,12.0,12.0,9.0,100.0,18.12,2024-03-22T00:19:42Z
47,00:25:49,臺北市文山區萬祥里興隆路1段68號,市立武功國小(2018),AirBox,taipei,2024-03-22,74DA38F7C3DC,2.0,1.0,25.003,121.539,9.0,台北市文山區武功國小2018,13.0,14.0,9.0,100.0,18.25,2024-03-22T00:25:49Z
48,00:31:57,臺北市文山區萬祥里興隆路1段68號,市立武功國小(2018),AirBox,taipei,2024-03-22,74DA38F7C3DC,2.0,1.0,25.003,121.539,9.0,台北市文山區武功國小2018,12.0,13.0,9.0,100.0,18.37,2024-03-22T00:31:57Z
49,00:38:05,臺北市文山區萬祥里興隆路1段68號,市立武功國小(2018),AirBox,taipei,2024-03-22,74DA38F7C3DC,2.0,1.0,25.003,121.539,9.0,台北市文山區武功國小2018,13.0,13.0,10.0,100.0,18.5,2024-03-22T00:38:05Z
50,00:44:11,臺北市文山區萬祥里興隆路1段68號,市立武功國小(2018),AirBox,taipei,2024-03-22,74DA38F7C3DC,2.0,1.0,25.003,121.539,9.0,台北市文山區武功國小2018,13.0,14.0,10.0,100.0,18.62,2024-03-22T00:44:11Z
51,00:50:17,臺北市文山區萬祥里興隆路1段68號,市立武功國小(2018),AirBox,taipei,2024-03-22,74DA38F7C3DC,2.0,1.0,25.003,121.539,9.0,台北市文山區武功國小2018,13.0,15.0,10.0,100.0,18.87,2024-03-22T00:50:17Z
52,00:56:25,臺北市文山區萬祥里興隆路1段68號,市立武功國小(2018),AirBox,taipei,2024-03-22,74DA38F7C3DC,2.0,1.0,25.003,121.539,9.0,台北市文山區武功國小2018,15.0,16.0,11.0,100.0,19.0,2024-03-22T00:56:25Z
53,01:02:32,臺北市文山區萬祥里興隆路1段68號,市立武功國小(2018),AirBox,taipei,2024-03-22,74DA38F7C3DC,2.0,1.0,25.003,121.539,9.0,台北市文山區武功國小2018,14.0,15.0,10.0,100.0,19.12,2024-03-22T01:02:32Z
54,01:08:39,臺北市文山區萬祥里興隆路1段68號,市立武功國小(2018),AirBox,taipei,2024-03-22,74DA38F7C3DC,2.0,1.0,25.003,121.539,9.0,台北市文山區武功國小2018,14.0,15.0,11.0,100.0,19.37,2024-03-22T01:08:39Z
55,01:14:47,臺北市文山區萬祥里興隆路1段68號,市立武功國小(2018),AirBox,taipei,2024-03-22,74DA38F7C3DC,2.0,1.0,25.003,121.539,9.0,台北市文山區武功國小2018,14.0,15.0,10.0,100.0,19.5,2024-03-22T01:14:47Z
56,01:20:54,臺北市文山區萬祥里興隆路1段68號,市立武功國小(2018),AirBox,taipei,2024-03-22,74DA38F7C3DC,2.0,1.0,25.003,121.539,9.0,台北市文山區武功國小2018,12.0,13.0,9.0,100.0,19.75,2024-03-22T01:20:54Z
57,01:27:01,臺北市文山區萬祥里興隆路1段68號,市立武功國小(2018),AirBox,taipei,2024-03-22,74DA38F7C3DC,2.0,1.0,25.003,121.539,9.0,台北市文山區武功國小2018,13.0,14.0,9.0,100.0,20.0,2024-03-22T01:27:01Z
58,01:33:07,臺北市文山區萬祥里興隆路1段68號,市立武功國小(2018),AirBox,taipei,2024-03-22,74DA38F7C3DC,2.0,1.0,25.003,121.539,9.0,台北市文山區武功國小2018,13.0,14.0,10.0,100.0,20.25,2024-03-22T01:33:07Z
59,01:39:14,臺北市文山區萬祥里興隆路1段68號,市立武功國小(2018),AirBox,taipei,2024-03-22,74DA38F7C3DC,2.0,1.0,25.003,121.539,9.0,台北市文山區武功國小2018,13.0,14.0,9.0,100.0,20.37,2024-03-22T01:39:14Z
60,01:45:21,臺北市文山區萬祥里興隆路1段68號,市立武功國小(2018),AirBox,taipei,2024-03-22,74DA38F7C3DC,2.0,1.0,25.003,121.539,9.0,台北市文山區武功國小2018,13.0,14.0,9.0,100.0,20.62,2024-03-22T01:45:21Z
61,01:51:29,臺北市文山區萬祥里興隆路1段68號,市立武功國小(2018),AirBox,taipei,2024-03-22,74DA38F7C3DC,2.0,1.0,25.003,121.539,9.0,台北市文山區武功國小2018,13.0,14.0,9.0,100.0,21.0,2024-03-22T01:51:29Z
62,01:57:35,臺北市文山區萬祥里興隆路1段68號,市立武功國小(2018),AirBox,taipei,2024-03-22,74DA38F7C3DC,2.0,1.0,25.003,121.539,9.0,台北市文山區武功國小2018,12.0,12.0,8.0,100.0,21.25,2024-03-22T01:57:35Z
63,02:03:42,臺北市文山區萬祥里興隆路1段68號,市立武功國小(2018),AirBox,taipei,2024-03-22,74DA38F7C3DC,2.0,1.0,25.003,121.539,9.0,台北市文山區武功國小2018,12.0,13.0,8.0,100.0,21.5,2024-03-22T02:03:42Z
64,02:09:49,臺北市文山區萬祥里興隆路1段68號,市立武功國小(2018),AirBox,taipei,2024-03-22,74DA38F7C3DC,2.0,1.0,25.003,121.539,9.0,台北市文山區武功國小2018,13.0,14.0,9.0,100.0,21.87,2024-03-22T02:09:49Z
65,02:15:57,臺北市文山區萬祥里興隆路1段68號,市立武功國小(2018),AirBox,taipei,2024-03-22,74DA38F7C3DC,2.0,1.0,25.003,121.539,9.0,台北市文山區武功國小2018,12.0,13.0,8.0,100.0,22.0,2024-03-22T02:15:57Z
66,02:22:05,臺北市文山區萬祥里興隆路1段68號,市立武功國小(2018),AirBox,taipei,2024-03-22,74DA38F7C3DC,2.0,1.0,25.003,121.539,9.0,台北市文山區武功國小2018,12.0,13.0,8.0,100.0,22.25,2024-03-22T02:22:05Z
67,02:28:12,臺北市文山區萬祥里興隆路1段68號,市立武功國小(2018),AirBox,taipei,2024-03-22,74DA38F7C3DC,2.0,1.0,25.003,121.539,9.0,台北市文山區武功國小2018,12.0,13.0,9.0,100.0,22.37,2024-03-22T02:28:12Z
68,02:34:19,臺北市文山區萬祥里興隆路1段68號,市立武功國小(2018),AirBox,taipei,2024-03-22,74DA38F7C3DC,2.0,1.0,25.003,121.539,9.0,台北市文山區武功國小2018,13.0,14.0,9.0,98.0,22.62,2024-03-22T02:34:19Z
69,02:40:27,臺北市文山區萬祥里興隆路1段68號,市立武功國小(2018),AirBox,taipei,2024-03-22,74DA38F7C3DC,2.0,1.0,25.003,121.539,9.0,台北市文山區武功國小2018,13.0,14.0,9.0,94.0,22.75,2024-03-22T02:40:27Z
70,02:46:33,臺北市文山區萬祥里興隆路1段68號,市立武功國小(2018),AirBox,taipei,2024-03-22,74DA38F7C3DC,2.0,1.0,25.003,121.539,9.0,台北市文山區武功國小2018,12.0,13.0,9.0,94.0,22.87,2024-03-22T02:46:33Z
71,02:52:39,臺北市文山區萬祥里興隆路1段68號,市立武功國小(2018),AirBox,taipei,2024-03-22,74DA38F7C3DC,2.0,1.0,25.003,121.539,9.0,台北市文山區武功國小2018,11.0,12.0,8.0,93.0,23.12,2024-03-22T02:52:39Z
72,02:58:46,臺北市文山區萬祥里興隆路1段68號,市立武功國小(2018),AirBox,taipei,2024-03-22,74DA38F7C3DC,2.0,1.0,25.003,121.539,9.0,台北市文山區武功國小2018,12.0,13.0,8.0,93.0,23.25,2024-03-22T02:58:46Z
73,03:04:52,臺北市文山區萬祥里興隆路1段68號,市立武功國小(2018),AirBox,taipei,2024-03-22,74DA38F7C3DC,2.0,1.0,25.003,121.539,9.0,台北市文山區武功國小2018,11.0,12.0,8.0,91.0,23.37,2024-03-22T03:04:52Z
74,03:11:00,臺北市文山區萬祥里興隆路1段68號,市立武功國小(2018),AirBox,taipei,2024-03-22,74DA38F7C3DC,2.0,1.0,25.003,121.539,9.0,台北市文山區武功國小2018,11.0,13.0,8.0,91.0,23.37,2024-03-22T03:11:00Z
75,03:17:07,臺北市文山區萬祥里興隆路1段68號,市立武功國小(2018),AirBox,taipei,2024-03-22,74DA38F7C3DC,2.0,1.0,25.003,121.539,9.0,台北市文山區武功國小2018,12.0,13.0,8.0,90.0,23.37,2024-03-22T03:17:07Z
76,03:23:13,臺北市文山區萬祥里興隆路1段68號,市立武功國小(2018),AirBox,taipei,2024-03-22,74DA38F7C3DC,2.0,1.0,25.003,121.539,9.0,台北市文山區武功國小2018,12.0,13.0,9.0,90.0,23.5,2024-03-22T03:23:13Z
77,03:29:21,臺北市文山區萬祥里興隆路1段68號,市立武功國小(2018),AirBox,taipei,2024-03-22,74DA38F7C3DC,2.0,1.0,25.003,121.539,9.0,台北市文山區武功國小2018,12.0,13.0,9.0,90.0,23.75,2024-03-22T03:29:21Z
78,03:35:28,臺北市文山區萬祥里興隆路1段68號,市立武功國小(2018),AirBox,taipei,2024-03-22,74DA38F7C3DC,2.0,1.0,25.003,121.539,9.0,台北市文山區武功國小2018,12.0,13.0,8.0,88.0,23.87,2024-03-22T03:35:28Z
79,03:41:34,臺北市文山區萬祥里興隆路1段68號,市立武功國小(2018),AirBox,taipei,2024-03-22,74DA38F7C3DC,2.0,1.0,25.003,121.539,9.0,台北市文山區武功國小2018,12.0,13.0,9.0,86.0,24.0,2024-03-22T03:41:34Z
80,03:47:41,臺北市文山區萬祥里興隆路1段68號,市立武功國小(2018),AirBox,taipei,2024-03-22,74DA38F7C3DC,2.0,1.0,25.003,121.539,9.0,台北市文山區武功國小2018,12.0,13.0,9.0,87.0,24.12,2024-03-22T03:47:41Z
81,03:53:47,臺北市文山區萬祥里興隆路1段68號,市立武功國小(2018),AirBox,taipei,2024-03-22,74DA38F7C3DC,2.0,1.0,25.003,121.539,9.0,台北市文山區武功國小2018,13.0,14.0,9.0,87.0,24.37,2024-03-22T03:53:47Z
82,03:59:54,臺北市文山區萬祥里興隆路1段68號,市立武功國小(2018),AirBox,taipei,2024-03-22,74DA38F7C3DC,2.0,1.0,25.003,121.539,9.0,台北市文山區武功國小2018,14.0,15.0,10.0,88.0,24.37,2024-03-22T03:59:54Z
83,04:06:00,臺北市文山區萬祥里興隆路1段68號,市立武功國小(2018),AirBox,taipei,2024-03-22,74DA38F7C3DC,2.0,1.0,25.003,121.539,9.0,台北市文山區武功國小2018,14.0,15.0,10.0,86.0,24.5,2024-03-22T04:06:00Z
84,04:12:07,臺北市文山區萬祥里興隆路1段68號,市立武功國小(2018),AirBox,taipei,2024-03-22,74DA38F7C3DC,2.0,1.0,25.003,121.539,9.0,台北市文山區武功國小2018,14.0,15.0,10.0,86.0,24.62,2024-03-22T04:12:07Z
85,04:18:13,臺北市文山區萬祥里興隆路1段68號,市立武功國小(2018),AirBox,taipei,2024-03-22,74DA38F7C3DC,2.0,1.0,25.003,121.539,9.0,台北市文山區武功國小2018,14.0,15.0,10.0,86.0,24.75,2024-03-22T04:18:13Z
86,04:24:21,臺北市文山區萬祥里興隆路1段68號,市立武功國小(2018),AirBox,taipei,2024-03-22,74DA38F7C3DC,2.0,1.0,25.003,121.539,9.0,台北市文山區武功國小2018,15.0,17.0,10.0,85.0,24.75,2024-03-22T04:24:21Z
87,04:30:29,臺北市文山區萬祥里興隆路1段68號,市立武功國小(2018),AirBox,taipei,2024-03-22,74DA38F7C3DC,2.0,1.0,25.003,121.539,9.0,台北市文山區武功國小2018,17.0,18.0,12.0,84.0,24.75,2024-03-22T04:30:29Z
88,04:36:37,臺北市文山區萬祥里興隆路1段68號,市立武功國小(2018),AirBox,taipei,2024-03-22,74DA38F7C3DC,2.0,1.0,25.003,121.539,9.0,台北市文山區武功國小2018,18.0,19.0,12.0,84.0,24.75,2024-03-22T04:36:37Z
89,04:42:43,臺北市文山區萬祥里興隆路1段68號,市立武功國小(2018),AirBox,taipei,2024-03-22,74DA38F7C3DC,2.0,1.0,25.003,121.539,9.0,台北市文山區武功國小2018,16.0,17.0,11.0,84.0,24.75,2024-03-22T04:42:43Z
90,04:48:51,臺北市文山區萬祥里興隆路1段68號,市立武功國小(2018),AirBox,taipei,2024-03-22,74DA38F7C3DC,2.0,1.0,25.003,121.539,9.0,台北市文山區武功國小2018,15.0,16.0,11.0,84.0,25.12,2024-03-22T04:48:51Z
91,04:54:58,臺北市文山區萬祥里興隆路1段68號,市立武功國小(2018),AirBox,taipei,2024-03-22,74DA38F7C3DC,2.0,1.0,25.003,121.539,9.0,台北市文山區武功國小2018,17.0,18.0,12.0,83.0,25.25,2024-03-22T04:54:58Z
92,05:01:07,臺北市文山區萬祥里興隆路1段68號,市立武功國小(2018),AirBox,taipei,2024-03-22,74DA38F7C3DC,2.0,1.0,25.003,121.539,9.0,台北市文山區武功國小2018,18.0,19.0,12.0,83.0,25.12,2024-03-22T05:01:07Z
93,05:07:15,臺北市文山區萬祥里興隆路1段68號,市立武功國小(2018),AirBox,taipei,2024-03-22,74DA38F7C3DC,2.0,1.0,25.003,121.539,9.0,台北市文山區武功國小2018,19.0,20.0,13.0,82.0,25.0,2024-03-22T05:07:15Z
94,05:13:23,臺北市文山區萬祥里興隆路1段68號,市立武功國小(2018),AirBox,taipei,2024-03-22,74DA38F7C3DC,2.0,1.0,25.003,121.539,9.0,台北市文山區武功國小2018,20.0,22.0,14.0,82.0,25.0,2024-03-22T05:13:23Z
95,05:19:29,臺北市文山區萬祥里興隆路1段68號,市立武功國小(2018),AirBox,taipei,2024-03-22,74DA38F7C3DC,2.0,1.0,25.003,121.539,9.0,台北市文山區武功國小2018,19.0,21.0,13.0,81.0,25.0,2024-03-22T05:19:29Z
96,05:25:37,臺北市文山區萬祥里興隆路1段68號,市立武功國小(2018),AirBox,taipei,2024-03-22,74DA38F7C3DC,2.0,1.0,25.003,121.539,9.0,台北市文山區武功國小2018,21.0,23.0,14.0,81.0,25.0,2024-03-22T05:25:37Z
97,05:31:44,臺北市文山區萬祥里興隆路1段68號,市立武功國小(2018),AirBox,taipei,2024-03-22,74DA38F7C3DC,2.0,1.0,25.003,121.539,9.0,台北市文山區武功國小2018,20.0,22.0,14.0,81.0,25.25,2024-03-22T05:31:44Z
98,05:37:51,臺北市文山區萬祥里興隆路1段68號,市立武功國小(2018),AirBox,taipei,2024-03-22,74DA38F7C3DC,2.0,1.0,25.003,121.539,9.0,台北市文山區武功國小2018,22.0,24.0,15.0,80.0,25.37,2024-03-22T05:37:51Z
99,05:43:59,臺北市文山區萬祥里興隆路1段68號,市立武功國小(2018),AirBox,taipei,2024-03-22,74DA38F7C3DC,2.0,1.0,25.003,121.539,9.0,台北市文山區武功國小2018,22.0,24.0,16.0,80.0,25.37,2024-03-22T05:43:59Z
100,05:50:08,臺北市文山區萬祥里興隆路1段68號,市立武功國小(2018),AirBox,taipei,2024-03-22,74DA38F7C3DC,2.0,1.0,25.003,121.539,9.0,台北市文山區武功國小2018,23.0,24.0,16.0,80.0,25.37,2024-03-22T05:50:08Z
101,05:56:17,臺北市文山區萬祥里興隆路1段68號,市立武功國小(2018),AirBox,taipei,2024-03-22,74DA38F7C3DC,2.0,1.0,25.003,121.539,9.0,台北市文山區武功國小2018,24.0,25.0,16.0,81.0,25.37,2024-03-22T05:56:17Z
102,06:02:25,臺北市文山區萬祥里興隆路1段68號,市立武功國小(2018),AirBox,taipei,2024-03-22,74DA38F7C3DC,2.0,1.0,25.003,121.539,9.0,台北市文山區武功國小2018,24.0,26.0,17.0,81.0,25.37,2024-03-22T06:02:25Z
103,06:08:34,臺北市文山區萬祥里興隆路1段68號,市立武功國小(2018),AirBox,taipei,2024-03-22,74DA38F7C3DC,2.0,1.0,25.003,121.539,9.0,台北市文山區武功國小2018,26.0,28.0,18.0,81.0,25.5,2024-03-22T06:08:34Z
104,06:14:42,臺北市文山區萬祥里興隆路1段68號,市立武功國小(2018),AirBox,taipei,2024-03-22,74DA38F7C3DC,2.0,1.0,25.003,121.539,9.0,台北市文山區武功國小2018,27.0,29.0,18.0,81.0,25.37,2024-03-22T06:14:42Z
105,06:20:49,臺北市文山區萬祥里興隆路1段68號,市立武功國小(2018),AirBox,taipei,2024-03-22,74DA38F7C3DC,2.0,1.0,25.003,121.539,9.0,台北市文山區武功國小2018,27.0,28.0,18.0,82.0,25.37,2024-03-22T06:20:49Z
106,06:27:00,臺北市文山區萬祥里興隆路1段68號,市立武功國小(2018),AirBox,taipei,2024-03-22,74DA38F7C3DC,2.0,1.0,25.003,121.539,9.0,台北市文山區武功國小2018,29.0,31.0,19.0,82.0,25.37,2024-03-22T06:27:00Z
107,06:33:09,臺北市文山區萬祥里興隆路1段68號,市立武功國小(2018),AirBox,taipei,2024-03-22,74DA38F7C3DC,2.0,1.0,25.003,121.539,9.0,台北市文山區武功國小2018,28.0,30.0,18.0,82.0,25.37,2024-03-22T06:33:09Z
108,06:39:17,臺北市文山區萬祥里興隆路1段68號,市立武功國小(2018),AirBox,taipei,2024-03-22,74DA38F7C3DC,2.0,1.0,25.003,121.539,9.0,台北市文山區武功國小2018,30.0,32.0,20.0,83.0,25.37,2024-03-22T06:39:17Z
109,06:45:27,臺北市文山區萬祥里興隆路1段68號,市立武功國小(2018),AirBox,taipei,2024-03-22,74DA38F7C3DC,2.0,1.0,25.003,121.539,9.0,台北市文山區武功國小2018,30.0,33.0,21.0,83.0,25.37,2024-03-22T06:45:27Z
110,06:51:37,臺北市文山區萬祥里興隆路1段68號,市立武功國小(2018),AirBox,taipei,2024-03-22,74DA38F7C3DC,2.0,1.0,25.003,121.539,9.0,台北市文山區武功國小2018,32.0,35.0,22.0,84.0,25.5,2024-03-22T06:51:37Z
111,06:57:47,臺北市文山區萬祥里興隆路1段68號,市立武功國小(2018),AirBox,taipei,2024-03-22,74DA38F7C3DC,2.0,1.0,25.003,121.539,9.0,台北市文山區武功國小2018,33.0,37.0,23.0,85.0,25.37,2024-03-22T06:57:47Z
112,07:03:55,臺北市文山區萬祥里興隆路1段68號,市立武功國小(2018),AirBox,taipei,2024-03-22,74DA38F7C3DC,2.0,1.0,25.003,121.539,9.0,台北市文山區武功國小2018,32.0,35.0,22.0,85.0,25.25,2024-03-22T07:03:55Z
113,07:10:05,臺北市文山區萬祥里興隆路1段68號,市立武功國小(2018),AirBox,taipei,2024-03-22,74DA38F7C3DC,2.0,1.0,25.003,121.539,9.0,台北市文山區武功國小2018,33.0,37.0,22.0,85.0,25.12,2024-03-22T07:10:05Z
114,07:16:13,臺北市文山區萬祥里興隆路1段68號,市立武功國小(2018),AirBox,taipei,2024-03-22,74DA38F7C3DC,2.0,1.0,25.003,121.539,9.0,台北市文山區武功國小2018,33.0,37.0,22.0,86.0,25.12,2024-03-22T07:16:13Z
115,07:22:23,臺北市文山區萬祥里興隆路1段68號,市立武功國小(2018),AirBox,taipei,2024-03-22,74DA38F7C3DC,2.0,1.0,25.003,121.539,9.0,台北市文山區武功國小2018,33.0,37.0,23.0,86.0,25.12,2024-03-22T07:22:23Z
116,07:28:34,臺北市文山區萬祥里興隆路1段68號,市立武功國小(2018),AirBox,taipei,2024-03-22,74DA38F7C3DC,2.0,1.0,25.003,121.539,9.0,台北市文山區武功國小2018,33.0,38.0,23.0,87.0,25.0,2024-03-22T07:28:34Z
117,07:34:44,臺北市文山區萬祥里興隆路1段68號,市立武功國小(2018),AirBox,taipei,2024-03-22,74DA38F7C3DC,2.0,1.0,25.003,121.539,9.0,台北市文山區武功國小2018,34.0,39.0,23.0,88.0,25.0,2024-03-22T07:34:44Z
118,07:40:53,臺北市文山區萬祥里興隆路1段68號,市立武功國小(2018),AirBox,taipei,2024-03-22,74DA38F7C3DC,2.0,1.0,25.003,121.539,9.0,台北市文山區武功國小2018,32.0,35.0,22.0,90.0,24.75,2024-03-22T07:40:53Z
119,07:47:03,臺北市文山區萬祥里興隆路1段68號,市立武功國小(2018),AirBox,taipei,2024-03-22,74DA38F7C3DC,2.0,1.0,25.003,121.539,9.0,台北市文山區武功國小2018,31.0,34.0,21.0,91.0,24.62,2024-03-22T07:47:03Z
120,07:53:12,臺北市文山區萬祥里興隆路1段68號,市立武功國小(2018),AirBox,taipei,2024-03-22,74DA38F7C3DC,2.0,1.0,25.003,121.539,9.0,台北市文山區武功國小2018,30.0,33.0,21.0,92.0,24.37,2024-03-22T07:53:12Z
121,07:59:22,臺北市文山區萬祥里興隆路1段68號,市立武功國小(2018),AirBox,taipei,2024-03-22,74DA38F7C3DC,2.0,1.0,25.003,121.539,9.0,台北市文山區武功國小2018,30.0,33.0,21.0,92.0,24.5,2024-03-22T07:59:22Z
122,08:05:30,臺北市文山區萬祥里興隆路1段68號,市立武功國小(2018),AirBox,taipei,2024-03-22,74DA38F7C3DC,2.0,1.0,25.003,121.539,9.0,台北市文山區武功國小2018,29.0,32.0,20.0,92.0,24.37,2024-03-22T08:05:30Z
123,08:11:39,臺北市文山區萬祥里興隆路1段68號,市立武功國小(2018),AirBox,taipei,2024-03-22,74DA38F7C3DC,2.0,1.0,25.003,121.539,9.0,台北市文山區武功國小2018,30.0,33.0,21.0,93.0,24.12,2024-03-22T08:11:39Z
124,08:17:46,臺北市文山區萬祥里興隆路1段68號,市立武功國小(2018),AirBox,taipei,2024-03-22,74DA38F7C3DC,2.0,1.0,25.003,121.539,9.0,台北市文山區武功國小2018,29.0,32.0,21.0,94.0,24.12,2024-03-22T08:17:46Z
125,08:23:57,臺北市文山區萬祥里興隆路1段68號,市立武功國小(2018),AirBox,taipei,2024-03-22,74DA38F7C3DC,2.0,1.0,25.003,121.539,9.0,台北市文山區武功國小2018,31.0,34.0,21.0,95.0,24.0,2024-03-22T08:23:57Z
126,08:30:05,臺北市文山區萬祥里興隆路1段68號,市立武功國小(2018),AirBox,taipei,2024-03-22,74DA38F7C3DC,2.0,1.0,25.003,121.539,9.0,台北市文山區武功國小2018,30.0,32.0,21.0,95.0,23.87,2024-03-22T08:30:05Z
127,08:36:14,臺北市文山區萬祥里興隆路1段68號,市立武功國小(2018),AirBox,taipei,2024-03-22,74DA38F7C3DC,2.0,1.0,25.003,121.539,9.0,台北市文山區武功國小2018,30.0,33.0,20.0,96.0,23.87,2024-03-22T08:36:14Z
128,08:42:22,臺北市文山區萬祥里興隆路1段68號,市立武功國小(2018),AirBox,taipei,2024-03-22,74DA38F7C3DC,2.0,1.0,25.003,121.539,9.0,台北市文山區武功國小2018,29.0,32.0,21.0,96.0,23.87,2024-03-22T08:42:22Z
129,08:48:33,臺北市文山區萬祥里興隆路1段68號,市立武功國小(2018),AirBox,taipei,2024-03-22,74DA38F7C3DC,2.0,1.0,25.003,121.539,9.0,台北市文山區武功國小2018,30.0,32.0,20.0,96.0,23.75,2024-03-22T08:48:33Z
130,08:54:42,臺北市文山區萬祥里興隆路1段68號,市立武功國小(2018),AirBox,taipei,2024-03-22,74DA38F7C3DC,2.0,1.0,25.003,121.539,9.0,台北市文山區武功國小2018,29.0,32.0,20.0,97.0,23.75,2024-03-22T08:54:42Z
131,09:00:50,臺北市文山區萬祥里興隆路1段68號,市立武功國小(2018),AirBox,taipei,2024-03-22,74DA38F7C3DC,2.0,1.0,25.003,121.539,9.0,台北市文山區武功國小2018,30.0,33.0,20.0,97.0,23.75,2024-03-22T09:00:50Z
132,09:06:59,臺北市文山區萬祥里興隆路1段68號,市立武功國小(2018),AirBox,taipei,2024-03-22,74DA38F7C3DC,2.0,1.0,25.003,121.539,9.0,台北市文山區武功國小2018,30.0,32.0,20.0,98.0,23.75,2024-03-22T09:06:59Z
133,09:13:08,臺北市文山區萬祥里興隆路1段68號,市立武功國小(2018),AirBox,taipei,2024-03-22,74DA38F7C3DC,2.0,1.0,25.003,121.539,9.0,台北市文山區武功國小2018,30.0,33.0,20.0,98.0,23.62,2024-03-22T09:13:08Z
134,09:19:17,臺北市文山區萬祥里興隆路1段68號,市立武功國小(2018),AirBox,taipei,2024-03-22,74DA38F7C3DC,2.0,1.0,25.003,121.539,9.0,台北市文山區武功國小2018,28.0,30.0,20.0,98.0,23.62,2024-03-22T09:19:17Z
135,09:25:25,臺北市文山區萬祥里興隆路1段68號,市立武功國小(2018),AirBox,taipei,2024-03-22,74DA38F7C3DC,2.0,1.0,25.003,121.539,9.0,台北市文山區武功國小2018,29.0,31.0,20.0,98.0,23.62,2024-03-22T09:25:25Z
136,09:31:33,臺北市文山區萬祥里興隆路1段68號,市立武功國小(2018),AirBox,taipei,2024-03-22,74DA38F7C3DC,2.0,1.0,25.003,121.539,9.0,台北市文山區武功國小2018,28.0,30.0,20.0,98.0,23.62,2024-03-22T09:31:33Z
137,09:37:41,臺北市文山區萬祥里興隆路1段68號,市立武功國小(2018),AirBox,taipei,2024-03-22,74DA38F7C3DC,2.0,1.0,25.003,121.539,9.0,台北市文山區武功國小2018,29.0,31.0,20.0,99.0,23.5,2024-03-22T09:37:41Z
138,09:43:50,臺北市文山區萬祥里興隆路1段68號,市立武功國小(2018),AirBox,taipei,2024-03-22,74DA38F7C3DC,2.0,1.0,25.003,121.539,9.0,台北市文山區武功國小2018,28.0,30.0,20.0,99.0,23.37,2024-03-22T09:43:50Z
139,09:50:00,臺北市文山區萬祥里興隆路1段68號,市立武功國小(2018),AirBox,taipei,2024-03-22,74DA38F7C3DC,2.0,1.0,25.003,121.539,9.0,台北市文山區武功國小2018,28.0,30.0,20.0,100.0,23.25,2024-03-22T09:50:00Z